Weather History for KTVC - January, 2014

Change the Weather History Date:

Wednesday, January 29, 2014

  Actual Average Record
Temperature  
Mean Temperature 13 °F 21 °F  
Max Temperature 19 °F 28 °F 51 °F (2013)
Min Temperature 7 °F 14 °F -11 °F (1951)
Degree Days  
Heating Degree Days 52 44  
Month to date heating degree days 1395 1261  
Since 1 July heating degree days 4216 4069  
Moisture  
Dew Point 4 °F    
Average Humidity 71    
Maximum Humidity 80    
Minimum Humidity 61    
Precipitation  
Precipitation T in 0.07 in 0.90 in (1996)
Month to date precipitation 0.93 2.66  
Year to date precipitation 0.93 2.66  
Snow  
Snow 0.00 in - - ()
Snow Depth 22.00 in    
Sea Level Pressure  
Sea Level Pressure 29.94 in    
Wind  
Wind Speed 11 mph (WSW)    
Max Wind Speed 25 mph    
Max Gust Speed 32 mph    
Visibility 4 miles    
Events Snow    
T = Trace of Precipitation, MM = Missing Value Source: NWS Daily Summary

Daily Weather History Graph

Daily Weather History Graph

Search for Another Location

Airport or City:

Trip Planner

Search our weather history database for the weather conditions in past years. The results will help you decide how hot, cold, wet, or windy it might be!

Date:

Astronomy

Jan. 29, 2014 Rise Set
Actual Time 8:04 AM EST 5:46 PM EST
Civil Twilight 7:33 AM EST 6:18 PM EST
Nautical Twilight 6:58 AM EST 6:53 PM EST
Astronomical Twilight 6:23 AM EST 7:27 PM EST
Moon 6:41 AM EST (1/29) 4:45 PM EST (1/29)
Length of Visible Light 10h 44m
Length of Day
9h 41m
Waning Crescent, 2% of the Moon is Illuminated
Jan 29
Waning Crescent
Jan 30
New
Feb 6
First Quarter
Feb 14
Full
Feb 22
Last Quarter

Hourly Weather History & Observations

Time (EST) Temp. Windchill Dew Point Humidity Pressure Visibility Wind Dir Wind Speed Gust Speed Precip Events Conditions
12:21 AM 8.1 °F -7.7 °F 1.9 °F 76% 29.92 in 2.0 mi WSW 12.7 mph 18.4 mph 0.00 in Snow Light Snow
12:41 AM 8.1 °F -6.2 °F 1.9 °F 76% 29.92 in 1.8 mi WSW 10.4 mph 19.6 mph 0.00 in Snow Light Snow
12:53 AM 8.1 °F -6.2 °F 1.9 °F 76% 29.97 in 1.2 mi WSW 10.4 mph - 0.00 in Snow Light Snow
1:07 AM 8.1 °F -5.3 °F 3.0 °F 80% 29.92 in 0.8 mi WSW 9.2 mph 19.6 mph 0.00 in Snow Light Snow
1:17 AM 8.1 °F -5.3 °F 3.0 °F 80% 29.92 in 1.0 mi WSW 9.2 mph - 0.00 in Snow Light Snow
1:24 AM 8.1 °F -4.3 °F 3.0 °F 80% 29.92 in 0.8 mi WSW 8.1 mph 18.4 mph 0.00 in Snow Light Snow
1:32 AM 8.1 °F -7.7 °F 3.0 °F 80% 29.92 in 1.0 mi WSW 12.7 mph 18.4 mph 0.00 in Snow Light Snow
1:42 AM 8.1 °F -7.0 °F 3.0 °F 80% 29.92 in 0.8 mi WSW 11.5 mph 18.4 mph 0.00 in Snow Light Snow
1:49 AM 6.8 °F -8.6 °F 1.4 °F 79% 29.92 in 1.0 mi WSW 11.5 mph 18.4 mph 0.00 in Snow Light Snow
1:53 AM 8.1 °F -6.2 °F 1.9 °F 76% 29.96 in 1.2 mi SW 10.4 mph 17.3 mph 0.00 in Snow Light Snow
2:05 AM 8.1 °F -7.0 °F 1.9 °F 76% 29.91 in 1.8 mi WSW 11.5 mph - 0.00 in Snow Light Snow
2:29 AM 7.0 °F -5.7 °F 1.9 °F 80% 29.91 in 1.0 mi WSW 8.1 mph - 0.00 in Snow Light Snow
2:53 AM 8.1 °F -4.3 °F 3.0 °F 80% 29.94 in 0.8 mi SW 8.1 mph - 0.00 in Snow Light Snow
3:03 AM 8.1 °F -3.2 °F 3.0 °F 80% 29.90 in 1.0 mi SW 6.9 mph - 0.00 in Snow Light Snow
3:53 AM 9.0 °F -5.1 °F 3.9 °F 80% 29.91 in 1.2 mi SW 10.4 mph 18.4 mph 0.00 in Snow Light Snow
4:43 AM 9.0 °F -4.2 °F 3.0 °F 77% 29.86 in 2.0 mi SW 9.2 mph 18.4 mph 0.00 in Snow Light Snow
4:53 AM 9.0 °F -4.2 °F 3.9 °F 80% 29.91 in 1.2 mi WSW 9.2 mph - 0.00 in Snow Light Snow
5:07 AM 9.0 °F -4.2 °F 3.9 °F 80% 29.86 in 1.0 mi WSW 9.2 mph - 0.00 in Snow Light Snow
5:41 AM 10.0 °F -2.9 °F 5.0 °F 80% 29.87 in 0.8 mi SW 9.2 mph - 0.00 in Snow Light Snow
5:53 AM 10.0 °F -2.9 °F 5.0 °F 80% 29.91 in 1.0 mi SW 9.2 mph - 0.00 in Snow Light Snow
6:19 AM 10.0 °F -3.7 °F 3.9 °F 76% 29.87 in 1.8 mi WSW 10.4 mph - 0.00 in Snow Light Snow
6:28 AM 10.0 °F -4.5 °F 3.9 °F 76% 29.87 in 2.0 mi WSW 11.5 mph 24.2 mph 0.00 in Snow Light Snow
6:53 AM 10.0 °F -1.9 °F 3.9 °F 76% 29.91 in 2.5 mi WSW 8.1 mph - 0.00 in Snow Light Snow
7:53 AM 10.0 °F -5.2 °F 5.0 °F 80% 29.92 in 2.0 mi West 12.7 mph 18.4 mph 0.00 in Snow Light Snow
8:53 AM 10.0 °F -8.6 °F 5.0 °F 80% 29.95 in 1.5 mi West 19.6 mph 24.2 mph 0.00 in Snow Light Snow
9:53 AM 10.0 °F -9.5 °F 3.9 °F 76% 29.96 in 1.5 mi West 21.9 mph 26.5 mph 0.00 in Snow Light Snow
10:53 AM 10.0 °F -8.1 °F 3.9 °F 76% 29.98 in 2.0 mi West 18.4 mph 24.2 mph 0.00 in Snow Light Snow
11:53 AM 10.9 °F -4.7 °F 3.9 °F 73% 30.00 in 2.0 mi West 13.8 mph - 0.00 in Snow Light Snow
12:53 PM 12.0 °F -4.0 °F 3.9 °F 70% 29.99 in 2.0 mi West 15.0 mph - 0.00 in Snow Light Snow
1:03 PM 12.9 °F -2.2 °F 3.9 °F 67% 29.95 in 3.0 mi West 13.8 mph 21.9 mph 0.00 in Snow Light Snow
1:44 PM 14.0 °F -0.2 °F 5.0 °F 67% 29.94 in 7.0 mi West 12.7 mph 21.9 mph 0.00 in Snow Light Snow
1:53 PM 14.0 °F 0.5 °F 5.0 °F 67% 29.98 in 7.0 mi WSW 11.5 mph - 0.00 in Snow Light Snow
2:53 PM 15.1 °F 0.5 °F 6.1 °F 68% 30.00 in 7.0 mi WSW 13.8 mph 20.7 mph 0.00 in Snow Light Snow
3:20 PM 16.0 °F 6.3 °F 7.0 °F 68% 29.95 in 8.0 mi SW 6.9 mph 19.6 mph 0.00 in Snow Light Snow
3:53 PM 17.1 °F 8.7 °F 7.0 °F 65% 29.99 in 8.0 mi Variable 5.8 mph - 0.00 in Snow Light Snow
4:41 PM 18.0 °F 6.9 °F 8.1 °F 65% 29.95 in 8.0 mi SW 9.2 mph 17.3 mph 0.00 in Snow Light Snow
4:53 PM 18.0 °F 6.9 °F 8.1 °F 65% 29.98 in 8.0 mi SW 9.2 mph - 0.00 in Snow Light Snow
5:53 PM 17.1 °F 7.6 °F 7.0 °F 65% 29.99 in 10.0 mi SSW 6.9 mph - 0.00 in   Scattered Clouds
6:53 PM 15.1 °F 7.7 °F 5.0 °F 64% 29.99 in 10.0 mi Variable 4.6 mph - N/A   Scattered Clouds
7:53 PM 15.1 °F 6.4 °F 6.1 °F 68% 29.99 in 10.0 mi Variable 5.8 mph - N/A   Partly Cloudy
8:53 PM 16.0 °F 5.3 °F 6.1 °F 65% 29.97 in 10.0 mi SSW 8.1 mph - N/A   Clear
9:53 PM 17.1 °F 4.3 °F 7.0 °F 65% 29.94 in 10.0 mi SSW 11.5 mph 21.9 mph N/A   Clear
10:53 PM 17.1 °F 6.6 °F 7.0 °F 65% 29.94 in 10.0 mi SSW 8.1 mph 17.3 mph N/A   Clear
11:53 PM 19.0 °F 10.0 °F 9.0 °F 65% 29.92 in 10.0 mi SW 6.9 mph - N/A   Clear